Simultaneous Nadir Overpasses (SNOs) Predictions

Prediction of SNOs between METOP-B and NOAA-19 Satellite Orbit:

Table of predicted SNOs for the next 14.0 days since TLE Epoch: 8/12/2023
Index Date (METOP-B) Time (METOP-B) Lat,Lon (METOP-B) SZA (METOP-B ) Date (NOAA-19) Time (NOAA-19) Lat,Lon (NOAA-19) SZA (NOAA-19 ) Distance(km) Time Diff (sec)
1 08/20/2023 21:29:14 -80.85, 70.30 110.07 08/20/2023 21:28:16 -80.85, 70.42 110.08 2.22 58
2 08/20/2023 22:19:54 80.86,-122.20 69.96 08/20/2023 22:19:12 80.86,-122.13 69.96 1.31 42
3 08/20/2023 23:10:35 -80.86, 45.15 110.03 08/20/2023 23:10:14 -80.86, 45.26 110.02 1.98 21
4 08/21/2023 00:01:15 80.87,-147.35 70.01 08/21/2023 00:01:10 80.87,-147.29 70.02 1.08 5
5 08/21/2023 00:51:56 -80.87, 20.01 109.98 08/21/2023 00:52:12 -80.87, 20.11 109.96 1.78 16
6 08/21/2023 01:42:37 80.86,-172.85 70.02 08/21/2023 01:43:09 80.87,-172.82 70.04 0.95 32
7 08/21/2023 02:33:17 -80.88, -5.14 109.93 08/21/2023 02:34:10 -80.88, -5.05 109.90 1.65 53



Historial Predications of SNOs between METOP-B and NOAA-19
